COSMOS 2492 (754)

Last updated on Nov. 12, 2019, 4:19 a.m. UTC

1 39620U 14012A   19315.57215384 -.00000056  00000-0  10000-3 0  9998
2 39620  65.6866  34.9631 0012339 320.0751 311.9439  2.13103291 43886
UTC
Height (km)
Latitude
Longitude
Inclination
Orbital Period
UTC large
Height (km)
Speed (km/s)
/
Latitude / Longitude
Inclination (degrees)
Orbital Period (minutes)
Azimuth
Elevation
Range (km)
Doppler Factor
iOS Compass Heading
iOS Angle

Next 30 passes for location: Hong Kong

Rise time Rise Azimuth (degrees) Set time Set Azimuth (degrees) Duration Max altitude (degrees)

No matching passes for this satellites